Wind_Speed
19 19 19 19 18 19 19 19 18 18 17 17 16 16 15 15 14 14 14 14 13 13 13 13 12 12 12 11 10 10 9 9 8 8 7 7 7 7 7 7 7 7 7
20 20 20 20 20 20 20 20 20 20 20 19 18 18 17 17 16 16 16 15 15 15 15 15 14 15 14 13 12 12 12 11 10 10 9 9 9 9 8 8 8 8 8
23 23 23 22 22 22 22 22 22 22 22 21 21 20 20 20 19 18 18 17 17 17 17 16 16 16 16 16 15 14 14 12 12 11 11 11 10 10 10 10 10 10 10
25 25 25 25 25 24 24 24 24 24 24 24 23 23 22 22 21 21 20 20 19 19 18 18 18 18 18 18 17 17 16 15 14 13 13 13 13 12 12 11 11 11 11
27 27 27 27 27 27 27 26 26 26 25 25 25 25 25 24 24 23 23 22 22 22 21 21 21 20 20 20 19 19 18 17 16 15 15 14 14 14 14 13 13 13 13
30 29 30 30 29 29 29 29 29 28 28 28 27 27 27 27 27 26 26 25 25 24 24 24 23 23 22 22 21 21 20 19 18 18 17 16 16 16 16 16 15 15 14
32 32 31 32 32 32 31 31 32 32 31 31 30 29 29 29 29 29 28 28 27 27 26 26 25 25 25 24 24 23 22 21 21 20 19 18 18 18 18 18 17 17 16
33 33 33 34 34 34 34 34 34 34 34 33 33 32 32 32 32 32 31 31 30 30 29 28 28 26 26 26 26 25 24 23 22 22 21 21 20 20 19 19 19 19 19
34 34 34 35 35 35 35 35 35 35 35 36 36 35 35 34 34 34 34 33 33 33 32 32 30 29 29 28 27 27 26 25 24 24 23 23 22 22 22 21 21 21 21
36 36 36 37 37 37 37 37 38 37 37 37 38 38 37 37 37 37 36 36 35 35 35 34 33 32 31 31 30 29 28 27 26 26 25 25 25 24 24 24 23 23 23
39 39 40 40 39 39 39 40 40 40 39 40 40 40 39 39 39 39 38 38 37 37 36 36 35 34 34 33 32 31 30 29 28 28 27 27 26 26 26 25 25 25 25
41 42 42 42 42 42 42 42 42 42 42 42 42 42 42 41 41 41 40 40 39 39 38 37 37 36 35 35 34 33 32 31 30 30 29 28 28 28 27 27 27 27 27
43 43 44 44 44 45 45 45 45 45 45 45 45 45 44 44 44 43 43 42 41 40 40 39 38 38 37 36 36 35 34 33 32 31 31 30 30 29 29 29 29 29 29
43 44 45 46 46 46 47 47 46 46 46 46 46 46 46 46 46 46 45 44 44 43 42 41 40 40 39 39 38 37 37 36 34 33 33 32 32 31 31 31 31 31 31
44 45 46 47 47 48 48 48 48 48 48 48 48 48 48 47 47 47 47 46 45 44 44 43 42 41 41 40 40 40 39 38 37 35 34 34 33 33 32 32 32 32 32
45 46 47 48 49 49 49 50 50 50 50 50 50 49 49 49 49 49 48 47 46 46 45 45 44 44 43 42 42 41 41 40 39 38 37 36 35 35 35 34 34 34 34
46 47 48 49 50 51 51 52 52 52 52 51 51 51 51 50 50 50 49 49 49 48 47 47 47 46 45 44 44 43 43 42 41 40 39 38 37 36 36 35 35 36 35
46 47 49 50 50 52 52 53 54 54 54 53 52 53 53 53 52 51 51 51 50 50 50 49 49 48 47 47 46 45 45 44 43 42 41 40 39 38 38 37 37 37 37
47 47 48 48 49 50 52 53 54 55 55 54 54 54 54 55 54 54 54 53 52 51 51 51 51 50 50 49 48 47 46 46 45 44 43 42 40 40 40 39 39 39 38
46 47 47 47 47 48 50 52 53 54 54 54 55 54 55 55 55 55 54 54 54 53 53 53 53 53 52 50 50 49 48 48 47 46 44 43 42 42 41 40 40 40 40
45 46 46 47 47 47 49 50 51 52 53 54 55 54 54 54 55 55 55 55 55 55 55 55 55 55 54 53 52 51 50 49 49 48 47 46 44 43 43 42 42 42 41
45 45 45 46 46 47 48 48 49 50 51 53 55 54 55 55 55 56 55 55 55 56 56 56 56 56 56 54 53 52 51 50 50 50 49 48 46 45 45 44 43 43 42
44 44 45 45 45 45 46 46 47 48 49 50 53 55 56 56 55 55 56 56 56 57 57 57 57 57 56 55 54 53 52 52 51 51 50 49 48 48 47 45 44 43 43
43 44 44 44 43 44 45 46 46 46 47 48 51 53 54 55 55 56 57 57 56 56 56 56 56 56 56 55 55 54 54 53 53 52 51 50 49 49 48 47 45 44 44
43 43 42 43 43 44 44 45 46 47 48 49 50 52 52 53 54 55 55 55 55 55 54 55 55 56 56 55 55 54 53 53 53 53 52 50 50 49 49 48 47 46 45
43 43 42 42 43 43 44 45 46 47 48 49 49 51 51 52 54 53 53 53 53 53 52 52 53 54 53 54 53 52 52 51 51 51 51 50 49 49 49 48 48 47 47
Wind_Direction
244 245 245 245 247 247 246 246 247 248 248 247 246 246 246 247 249 251 251 251 251 252 254 256 256 258 260 263 266 270 273 273 275 276 278 280 286 288 290 293 295 296 296
247 247 247 247 248 248 248 248 249 249 249 249 248 247 247 247 249 251 252 253 254 254 255 257 259 259 261 263 265 268 270 271 274 275 276 278 282 285 286 289 290 291 291
249 248 248 248 249 249 249 249 250 251 250 250 250 249 249 249 249 251 253 254 255 255 256 258 261 260 263 265 266 267 268 270 273 274 274 276 278 283 284 286 287 288 287
250 249 249 249 250 250 251 251 251 252 252 251 251 251 251 251 251 251 253 254 255 256 257 259 260 261 262 265 266 269 269 268 271 272 273 273 275 278 280 281 283 285 287
252 251 250 250 251 251 251 251 252 253 253 253 253 252 253 253 253 253 254 254 255 256 258 260 260 261 262 263 265 269 270 269 270 272 273 273 274 274 275 277 279 281 285
253 252 252 252 252 253 253 253 253 254 254 253 254 254 254 255 255 255 255 255 256 257 258 260 261 260 261 263 265 267 269 270 272 271 271 273 274 273 273 274 276 278 282
255 254 254 254 254 254 254 255 254 254 255 254 254 255 255 255 255 256 257 257 256 257 258 260 262 263 261 263 264 265 267 269 269 271 270 272 273 273 273 273 274 277 280
256 257 256 256 256 256 255 255 255 255 255 255 255 255 256 257 256 256 257 258 257 258 258 259 261 262 263 263 265 266 267 268 269 271 270 270 272 273 273 273 274 275 278
258 258 258 257 257 257 256 256 256 256 256 256 256 256 256 257 257 257 257 258 259 259 259 260 261 261 261 263 265 266 267 267 269 270 271 270 271 272 273 273 274 274 276
258 258 258 258 258 257 257 257 257 257 257 257 257 256 256 257 258 257 258 259 260 260 259 260 261 260 261 262 263 266 266 266 267 269 270 271 270 271 273 273 274 274 275
258 259 259 258 258 258 258 258 258 258 257 257 257 257 257 257 258 259 259 259 260 261 260 260 260 261 261 262 263 264 266 268 267 267 268 270 271 271 271 272 274 274 275
259 260 260 259 259 259 259 259 258 258 257 257 257 257 257 258 258 259 260 260 260 260 260 260 260 260 261 262 262 263 265 267 269 267 266 268 271 272 271 271 272 274 275
261 261 262 261 260 260 260 259 259 258 258 257 257 257 258 258 258 259 260 260 260 259 260 260 260 260 261 262 262 261 263 266 266 268 267 267 270 271 272 271 272 273 275
263 263 263 263 261 260 260 260 259 259 258 258 257 257 257 258 259 259 259 259 258 259 259 259 259 260 261 261 261 261 262 264 265 267 268 269 270 271 271 272 271 271 273
264 264 263 263 263 262 260 260 259 259 258 258 257 257 257 258 259 258 258 258 258 258 258 258 258 259 260 260 260 260 262 263 264 266 267 268 269 269 270 271 272 271 273
267 266 266 265 264 263 261 260 260 259 258 258 257 257 257 257 257 257 256 257 257 257 257 257 258 259 260 260 260 260 262 263 263 265 266 267 268 268 269 269 271 272 273
269 268 267 267 266 264 263 261 260 259 258 258 257 257 257 257 257 256 256 256 256 256 256 257 258 259 259 260 261 261 262 263 263 264 265 266 268 268 267 268 270 271 273
271 270 270 268 267 265 264 263 261 259 258 257 257 257 257 256 257 257 257 256 256 255 256 257 258 258 259 260 261 261 262 262 263 264 264 265 267 268 267 266 269 271 273
273 273 271 270 268 266 265 264 261 259 258 257 257 257 256 255 256 256 256 256 256 255 255 256 257 258 258 259 259 260 260 261 263 263 264 264 265 267 266 266 268 270 272
274 273 272 270 269 268 267 265 262 259 257 256 256 256 256 256 256 256 256 256 256 255 256 257 257 258 258 258 259 259 260 261 262 263 263 263 264 266 267 267 268 269 271
274 273 273 271 270 269 269 267 263 260 257 256 255 254 255 257 256 256 256 256 256 256 257 258 258 257 258 258 259 259 259 260 261 262 262 263 264 264 266 267 267 268 270
274 273 274 273 272 271 270 268 265 261 259 256 254 253 256 257 257 256 256 257 256 256 257 258 258 258 258 258 259 258 259 259 261 261 261 263 264 263 265 266 267 268 269
274 274 275 275 273 271 270 268 265 262 260 258 256 254 256 257 257 257 257 258 257 256 257 258 258 258 258 258 258 259 259 259 260 260 261 262 263 263 264 266 267 267 268
276 276 276 274 273 272 271 269 267 263 260 260 259 258 256 256 256 257 258 258 258 258 258 257 257 258 258 257 257 258 259 260 260 259 260 261 262 263 263 264 266 267 268
277 277 277 276 275 275 272 270 267 264 262 261 262 260 259 257 257 258 257 257 258 258 258 257 256 256 256 256 257 257 257 259 260 260 259 260 261 262 263 264 265 266 268
277 278 278 278 277 276 273 270 268 266 264 264 264 263 261 258 257 257 256 257 258 258 257 256 255 256 255 255 255 256 257 258 259 260 259 259 261 262 263 264 265 265 267
Height
5840 5840 5842 5843 5844 5845 5846 5847 5848 5849 5850 5851 5852 5853 5854 5854 5855 5856 5857 5857 5858 5859 5859 5860 5860 5860 5860 5860 5860 5860 5860 5859 5859 5859 5859 5859 5859 5858 5858 5858 5858 5857 5857
5836 5837 5838 5840 5841 5842 5843 5844 5845 5846 5847 5848 5849 5850 5851 5852 5853 5854 5854 5855 5856 5857 5857 5858 5858 5858 5858 5858 5858 5858 5858 5858 5858 5858 5858 5858 5857 5857 5857 5856 5856 5856 5855
5832 5834 5835 5836 5837 5839 5840 5841 5842 5843 5844 5845 5846 5847 5848 5849 5850 5851 5852 5852 5853 5854 5855 5855 5856 5856 5856 5856 5856 5856 5856 5856 5856 5856 5856 5856 5856 5855 5855 5855 5854 5854 5853
5828 5830 5831 5832 5833 5835 5836 5837 5838 5839 5840 5841 5843 5844 5845 5846 5847 5848 5849 5849 5850 5851 5852 5852 5853 5853 5854 5854 5854 5854 5854 5854 5854 5854 5854 5854 5854 5853 5853 5853 5852 5852 5851
5823 5825 5826 5828 5829 5830 5832 5833 5834 5835 5836 5837 5839 5840 5841 5842 5843 5844 5845 5846 5847 5847 5848 5849 5849 5850 5851 5851 5851 5851 5851 5851 5852 5852 5852 5852 5851 5851 5851 5850 5850 5850 5849
5818 5820 5821 5823 5824 5825 5827 5828 5829 5831 5832 5833 5834 5836 5837 5838 5839 5840 5841 5842 5842 5843 5844 5845 5846 5846 5847 5847 5847 5848 5848 5848 5849 5849 5849 5849 5849 5848 5848 5847 5847 5847 5846
5812 5814 5816 5817 5819 5820 5822 5823 5824 5825 5827 5828 5829 5831 5832 5833 5834 5835 5836 5837 5838 5839 5840 5841 5841 5842 5843 5843 5844 5844 5844 5845 5845 5846 5846 5846 5845 5845 5845 5844 5844 5844 5843
5807 5808 5810 5811 5813 5814 5816 5817 5818 5820 5821 5822 5823 5825 5826 5828 5829 5830 5831 5832 5833 5834 5835 5836 5837 5837 5838 5839 5839 5840 5840 5841 5841 5842 5842 5842 5842 5842 5841 5841 5841 5840 5840
5800 5802 5803 5805 5806 5808 5809 5811 5812 5813 5815 5816 5817 5819 5820 5821 5823 5824 5826 5827 5828 5829 5830 5830 5831 5832 5833 5834 5834 5835 5836 5836 5837 5838 5838 5838 5838 5838 5837 5837 5837 5836 5836
5793 5795 5796 5797 5799 5801 5802 5804 5805 5806 5808 5809 5810 5812 5813 5815 5816 5818 5819 5820 5822 5823 5824 5825 5826 5827 5827 5828 5829 5830 5831 5831 5832 5833 5833 5833 5833 5833 5833 5833 5832 5832 5831
5785 5787 5788 5790 5791 5793 5794 5796 5797 5799 5800 5801 5803 5804 5806 5807 5809 5810 5812 5814 5815 5816 5817 5818 5820 5821 5822 5823 5824 5825 5825 5826 5827 5827 5828 5828 5828 5828 5828 5828 5828 5827 5827
5777 5778 5780 5781 5783 5784 5785 5787 5789 5790 5792 5793 5795 5797 5798 5800 5801 5803 5805 5806 5808 5809 5810 5811 5813 5814 5815 5817 5818 5819 5820 5820 5821 5822 5822 5822 5822 5822 5822 5822 5822 5822 5822
5768 5769 5770 5771 5773 5774 5776 5778 5779 5781 5783 5784 5786 5788 5790 5791 5793 5794 5796 5798 5800 5801 5803 5804 5805 5807 5808 5810 5811 5812 5813 5814 5815 5816 5816 5816 5816 5816 5817 5817 5816 5816 5816
5758 5759 5760 5761 5762 5764 5765 5767 5769 5771 5773 5774 5776 5778 5780 5782 5784 5785 5787 5789 5791 5793 5795 5796 5797 5799 5800 5802 5803 5805 5806 5807 5808 5809 5809 5809 5810 5810 5810 5810 5810 5810 5810
5747 5748 5749 5750 5751 5753 5754 5755 5758 5760 5762 5764 5766 5768 5770 5772 5774 5775 5777 5780 5782 5784 5785 5787 5789 5790 5792 5794 5795 5797 5798 5800 5801 5801 5802 5802 5803 5803 5803 5803 5803 5803 5803
5736 5737 5738 5738 5739 5740 5742 5743 5745 5748 5750 5752 5754 5757 5758 5761 5763 5765 5767 5769 5772 5774 5776 5778 5780 5781 5783 5785 5787 5788 5790 5791 5792 5794 5794 5795 5796 5796 5796 5797 5796 5796 5796
5725 5725 5725 5726 5726 5727 5728 5730 5732 5735 5737 5740 5742 5744 5746 5749 5751 5752 5755 5758 5761 5763 5766 5768 5770 5771 5773 5776 5777 5779 5781 5782 5784 5785 5786 5787 5787 5788 5788 5789 5789 5789 5789
5713 5713 5712 5712 5712 5713 5714 5716 5718 5720 5723 5726 5728 5731 5733 5736 5738 5740 5743 5746 5749 5752 5754 5757 5759 5761 5763 5765 5767 5769 5771 5773 5774 5776 5777 5778 5779 5780 5780 5781 5781 5781 5781
5699 5699 5698 5698 5697 5698 5699 5700 5702 5705 5708 5711 5714 5717 5719 5722 5724 5727 5730 5733 5736 5739 5742 5745 5748 5750 5752 5754 5756 5758 5760 5762 5764 5766 5767 5769 5770 5771 5771 5772 5773 5773 5773
5686 5685 5685 5684 5683 5683 5683 5684 5686 5689 5692 5695 5698 5702 5704 5707 5710 5713 5716 5719 5722 5726 5729 5732 5735 5738 5740 5742 5744 5747 5749 5752 5753 5755 5757 5759 5760 5761 5762 5763 5764 5764 5764
5673 5672 5671 5671 5670 5670 5669 5669 5671 5674 5677 5680 5683 5687 5689 5692 5695 5698 5702 5705 5709 5713 5716 5719 5722 5725 5727 5729 5732 5735 5738 5740 5742 5744 5746 5748 5750 5751 5752 5753 5754 5755 5755
5660 5659 5658 5657 5656 5656 5655 5655 5656 5658 5661 5665 5669 5673 5675 5678 5681 5685 5688 5691 5694 5698 5701 5704 5707 5710 5714 5716 5719 5722 5725 5729 5730 5732 5734 5736 5738 5740 5742 5743 5744 5745 5745
5647 5647 5646 5645 5644 5643 5642 5642 5643 5645 5648 5651 5655 5659 5661 5664 5667 5670 5673 5676 5680 5683 5686 5689 5692 5696 5700 5703 5705 5708 5712 5716 5718 5720 5722 5725 5727 5728 5730 5732 5733 5734 5735
5636 5634 5633 5633 5632 5631 5630 5630 5631 5633 5636 5639 5642 5645 5648 5650 5653 5655 5658 5662 5665 5668 5671 5674 5677 5681 5684 5688 5691 5694 5697 5701 5704 5708 5710 5712 5714 5716 5718 5720 5722 5723 5724
5624 5623 5622 5621 5620 5619 5619 5620 5620 5622 5625 5627 5629 5631 5634 5636 5639 5641 5644 5648 5650 5653 5656 5659 5663 5666 5669 5673 5677 5680 5683 5686 5689 5692 5697 5700 5702 5704 5706 5708 5710 5711 5712
5614 5612 5612 5611 5609 5608 5608 5608 5609 5611 5612 5614 5616 5618 5620 5623 5625 5628 5631 5634 5636 5639 5642 5645 5649 5652 5655 5659 5662 5666 5669 5673 5676 5679 5683 5686 5689 5692 5693 5696 5698 5700 5701